TimePST,TemperatureF,Dew PointF,Humidity,Sea Level PressureIn,VisibilityMPH,Wind Direction,Wind SpeedMPH,Gust SpeedMPH,PrecipitationIn,Events,Conditions,WindDirDegrees,DateUTC
12:53 AM,39.0,33.1,79,30.21,10.0,NW,4.6,-,N/A,,Clear,320,2013-02-22 08:53:00
1:53 AM,39.0,33.1,79,30.21,10.0,NW,5.8,-,N/A,,Clear,310,2013-02-22 09:53:00
2:53 AM,37.9,33.1,83,30.20,10.0,NW,4.6,-,N/A,,Clear,310,2013-02-22 10:53:00
3:53 AM,37.0,33.1,86,30.20,10.0,NW,4.6,-,N/A,,Clear,320,2013-02-22 11:53:00
4:53 AM,37.0,33.1,86,30.21,10.0,Calm,Calm,-,N/A,,Clear,0,2013-02-22 12:53:00
5:53 AM,36.0,33.1,89,30.22,10.0,WNW,3.5,-,N/A,,Clear,290,2013-02-22 13:53:00
6:53 AM,37.0,33.1,86,30.24,10.0,Calm,Calm,-,N/A,,Clear,0,2013-02-22 14:53:00
7:53 AM,39.0,34.0,82,30.26,10.0,Calm,Calm,-,N/A,,Clear,0,2013-02-22 15:53:00
8:53 AM,45.0,37.0,74,30.27,10.0,Calm,Calm,-,N/A,,Clear,0,2013-02-22 16:53:00
9:53 AM,48.9,37.9,66,30.27,10.0,Calm,Calm,-,N/A,,Clear,0,2013-02-22 17:53:00
10:53 AM,54.0,36.0,51,30.26,10.0,Calm,Calm,-,N/A,,Clear,0,2013-02-22 18:53:00
11:53 AM,57.0,41.0,55,30.26,10.0,SW,5.8,-,N/A,,Clear,230,2013-02-22 19:53:00
12:53 PM,57.9,37.9,47,30.23,10.0,SW,3.5,-,N/A,,Clear,220,2013-02-22 20:53:00
1:53 PM,57.0,41.0,55,30.22,10.0,South,9.2,-,N/A,,Clear,190,2013-02-22 21:53:00
2:53 PM,55.9,45.0,67,30.21,10.0,South,6.9,-,N/A,,Clear,190,2013-02-22 22:53:00
3:53 PM,55.9,45.0,67,30.21,10.0,SE,5.8,-,N/A,,Clear,130,2013-02-22 23:53:00
4:53 PM,55.0,44.1,67,30.21,10.0,SE,3.5,-,N/A,,Clear,130,2013-02-23 00:53:00
5:53 PM,52.0,42.1,69,30.22,10.0,SE,5.8,-,N/A,,Clear,130,2013-02-23 01:53:00
6:53 PM,50.0,42.1,74,30.22,10.0,ESE,4.6,-,N/A,,Clear,110,2013-02-23 02:53:00
7:53 PM,48.9,42.1,77,30.24,10.0,Calm,Calm,-,N/A,,Clear,0,2013-02-23 03:53:00
8:53 PM,46.0,42.1,86,30.26,10.0,NNW,4.6,-,N/A,,Clear,330,2013-02-23 04:53:00
9:53 PM,45.0,41.0,86,30.25,10.0,WNW,4.6,-,N/A,,Clear,300,2013-02-23 05:53:00
10:53 PM,45.0,41.0,86,30.27,10.0,Calm,Calm,-,N/A,,Clear,0,2013-02-23 06:53:00
11:53 PM,45.0,41.0,86,30.27,9.0,Calm,Calm,-,N/A,,Overcast,0,2013-02-23 07:53:00